Time,TemperatureF,DewpointF,PressureIn,WindDirection,WindDirectionDegrees,WindSpeedMPH,WindSpeedGustMPH,Humidity,HourlyPrecipIn,Conditions,Clouds,dailyrainin,SoftwareType,DateUTC
2013-03-31 00:08:00,37.7,29.0,30.08,West,264,0.0,0.0,71,0.00,,,0.00,weatherlink.com 1.10,2013-03-31 04:08:00,
2013-03-31 00:23:00,37.4,29.0,30.08,West,264,0.0,0.0,71,0.00,,,0.00,weatherlink.com 1.10,2013-03-31 04:23:00,
2013-03-31 00:38:00,37.3,27.0,30.09,West,264,0.0,0.0,67,0.00,,,0.00,weatherlink.com 1.10,2013-03-31 04:38:00,
2013-03-31 00:53:00,37.0,27.0,30.09,West,264,0.0,0.0,66,0.00,,,0.00,weatherlink.com 1.10,2013-03-31 04:53:00,
2013-03-31 01:08:00,36.7,27.0,30.09,West,264,0.0,0.0,67,0.00,,,0.00,weatherlink.com 1.10,2013-03-31 05:08:00,
2013-03-31 01:23:00,37.2,26.0,30.10,West,278,0.0,3.0,65,0.00,,,0.00,weatherlink.com 1.10,2013-03-31 05:23:00,
2013-03-31 01:38:00,38.2,26.0,30.10,West,278,0.0,2.0,62,0.00,,,0.00,weatherlink.com 1.10,2013-03-31 05:38:00,
2013-03-31 01:53:00,37.7,26.0,30.10,West,278,0.0,0.0,63,0.00,,,0.00,weatherlink.com 1.10,2013-03-31 05:53:00,
2013-03-31 02:08:00,36.7,26.0,30.09,West,278,0.0,0.0,65,0.00,,,0.00,weatherlink.com 1.10,2013-03-31 06:08:00,
2013-03-31 02:23:00,35.6,26.0,30.09,West,278,0.0,0.0,68,0.00,,,0.00,weatherlink.com 1.10,2013-03-31 06:23:00,
2013-03-31 02:38:00,35.0,26.0,30.09,West,278,0.0,0.0,69,0.00,,,0.00,weatherlink.com 1.10,2013-03-31 06:38:00,
2013-03-31 02:53:00,34.6,26.0,30.09,West,278,0.0,0.0,70,0.00,,,0.00,weatherlink.com 1.10,2013-03-31 06:53:00,
2013-03-31 03:08:00,34.2,26.0,30.08,West,278,0.0,0.0,71,0.00,,,0.00,weatherlink.com 1.10,2013-03-31 07:08:00,
2013-03-31 03:23:00,33.9,26.0,30.08,West,278,0.0,0.0,72,0.00,,,0.00,weatherlink.com 1.10,2013-03-31 07:23:00,
2013-03-31 03:38:00,33.8,26.0,30.08,West,278,0.0,0.0,73,0.00,,,0.00,weatherlink.com 1.10,2013-03-31 07:38:00,
2013-03-31 03:53:00,33.7,26.0,30.09,West,278,0.0,0.0,72,0.00,,,0.00,weatherlink.com 1.10,2013-03-31 07:53:00,
2013-03-31 04:08:00,33.7,26.0,30.09,West,278,0.0,0.0,73,0.00,,,0.00,weatherlink.com 1.10,2013-03-31 08:08:00,
2013-03-31 04:23:00,33.7,26.0,30.09,West,278,0.0,0.0,73,0.00,,,0.00,weatherlink.com 1.10,2013-03-31 08:23:00,
2013-03-31 04:38:00,33.7,26.0,30.09,West,278,0.0,0.0,73,0.00,,,0.00,weatherlink.com 1.10,2013-03-31 08:38:00,
2013-03-31 04:53:00,33.4,25.0,30.09,West,278,0.0,0.0,72,0.00,,,0.00,weatherlink.com 1.10,2013-03-31 08:53:00,
2013-03-31 05:08:00,33.2,26.0,30.09,West,278,0.0,0.0,74,0.00,,,0.00,weatherlink.com 1.10,2013-03-31 09:08:00,
2013-03-31 05:23:00,32.8,25.0,30.09,West,278,0.0,0.0,74,0.00,,,0.00,weatherlink.com 1.10,2013-03-31 09:23:00,
2013-03-31 05:38:00,32.4,26.0,30.09,West,278,0.0,0.0,76,0.00,,,0.00,weatherlink.com 1.10,2013-03-31 09:38:00,
2013-03-31 05:53:00,31.9,25.0,30.09,West,278,0.0,0.0,76,0.00,,,0.00,weatherlink.com 1.10,2013-03-31 09:53:00,
2013-03-31 06:08:00,31.6,25.0,30.09,West,278,0.0,0.0,78,0.00,,,0.00,weatherlink.com 1.10,2013-03-31 10:08:00,
2013-03-31 06:23:00,31.5,25.0,30.09,West,278,0.0,0.0,78,0.00,,,0.00,weatherlink.com 1.10,2013-03-31 10:23:00,
2013-03-31 06:40:00,31.1,25.0,30.09,West,278,0.0,0.0,78,0.00,,,0.00,weatherlink.com 1.10,2013-03-31 10:40:00,
2013-03-31 06:53:00,31.0,25.0,30.10,West,278,0.0,0.0,79,0.00,,,0.00,weatherlink.com 1.10,2013-03-31 10:53:00,
2013-03-31 07:08:00,31.7,26.0,30.11,West,278,0.0,0.0,80,0.00,,,0.00,weatherlink.com 1.10,2013-03-31 11:08:00,
2013-03-31 07:23:00,32.7,28.0,30.11,West,278,0.0,0.0,81,0.00,,,0.00,weatherlink.com 1.10,2013-03-31 11:23:00,
2013-03-31 07:38:00,34.2,29.0,30.10,West,278,0.0,0.0,82,0.00,,,0.00,weatherlink.com 1.10,2013-03-31 11:38:00,
2013-03-31 07:53:00,36.6,30.0,30.11,West,278,0.0,0.0,78,0.00,,,0.00,weatherlink.com 1.10,2013-03-31 11:53:00,
2013-03-31 08:08:00,39.4,28.0,30.11,West,278,0.0,0.0,65,0.00,,,0.00,weatherlink.com 1.10,2013-03-31 12:08:00,
2013-03-31 08:24:00,42.9,28.0,30.10,West,278,0.0,0.0,57,0.00,,,0.00,weatherlink.com 1.10,2013-03-31 12:24:00,
2013-03-31 08:39:00,46.0,30.0,30.10,West,278,0.0,1.0,53,0.00,,,0.00,weatherlink.com 1.10,2013-03-31 12:39:00,
2013-03-31 08:54:00,49.5,29.0,30.09,West,278,0.0,1.0,46,0.00,,,0.00,weatherlink.com 1.10,2013-03-31 12:54:00,
2013-03-31 09:09:00,52.3,31.0,30.09,West,281,2.0,2.0,44,0.00,,,0.00,weatherlink.com 1.10,2013-03-31 13:09:00,
2013-03-31 09:24:00,54.8,31.0,30.09,South,180,0.0,3.0,41,0.00,,,0.00,weatherlink.com 1.10,2013-03-31 13:24:00,
2013-03-31 09:39:00,54.4,33.0,30.09,ESE,117,4.0,4.0,45,0.00,,,0.00,weatherlink.com 1.10,2013-03-31 13:39:00,
2013-03-31 09:54:00,55.3,33.0,30.09,South,170,0.0,5.0,43,0.00,,,0.00,weatherlink.com 1.10,2013-03-31 13:54:00,
2013-03-31 10:09:00,53.7,38.0,30.09,East,99,2.0,8.0,55,0.00,,,0.00,weatherlink.com 1.10,2013-03-31 14:09:00,
2013-03-31 10:24:00,53.7,30.0,30.09,SSW,194,1.0,8.0,41,0.00,,,0.00,weatherlink.com 1.10,2013-03-31 14:24:00,
2013-03-31 10:39:00,53.0,32.0,30.09,SW,236,8.0,8.0,45,0.00,,,0.00,weatherlink.com 1.10,2013-03-31 14:39:00,
2013-03-31 10:54:00,53.3,29.0,30.09,SW,224,5.0,8.0,40,0.00,,,0.00,weatherlink.com 1.10,2013-03-31 14:54:00,
2013-03-31 11:09:00,53.7,28.0,30.09,South,175,1.0,8.0,38,0.00,,,0.00,weatherlink.com 1.10,2013-03-31 15:09:00,
2013-03-31 11:24:00,54.4,32.0,30.09,ESE,104,5.0,7.0,43,0.00,,,0.00,weatherlink.com 1.10,2013-03-31 15:24:00,
2013-03-31 11:39:00,55.1,34.0,30.09,SSW,200,3.0,6.0,45,0.00,,,0.00,weatherlink.com 1.10,2013-03-31 15:39:00,
2013-03-31 11:54:00,54.6,34.0,30.09,SSW,198,5.0,10.0,46,0.00,,,0.00,weatherlink.com 1.10,2013-03-31 15:54:00,
2013-03-31 12:09:00,55.1,37.0,30.08,South,179,1.0,8.0,51,0.00,,,0.00,weatherlink.com 1.10,2013-03-31 16:09:00,
2013-03-31 12:24:00,55.0,36.0,30.08,West,274,4.0,8.0,49,0.00,,,0.00,weatherlink.com 1.10,2013-03-31 16:24:00,
2013-03-31 12:39:00,54.9,34.0,30.07,WSW,243,3.0,10.0,46,0.00,,,0.00,weatherlink.com 1.10,2013-03-31 16:39:00,
2013-03-31 12:54:00,55.5,35.0,30.07,SSW,200,3.0,10.0,46,0.00,,,0.00,weatherlink.com 1.10,2013-03-31 16:54:00,
2013-03-31 13:09:00,55.8,34.0,30.06,SW,229,2.0,8.0,44,0.00,,,0.00,weatherlink.com 1.10,2013-03-31 17:09:00,
2013-03-31 13:24:00,55.7,34.0,30.06,SSW,207,4.0,10.0,44,0.00,,,0.00,weatherlink.com 1.10,2013-03-31 17:24:00,
2013-03-31 13:39:00,55.5,34.0,30.05,South,172,3.0,11.0,44,0.00,,,0.00,weatherlink.com 1.10,2013-03-31 17:39:00,
2013-03-31 13:54:00,55.0,34.0,30.05,SSW,198,1.0,8.0,46,0.00,,,0.00,weatherlink.com 1.10,2013-03-31 17:54:00,
2013-03-31 14:09:00,55.0,34.0,30.04,WSW,243,1.0,8.0,46,0.00,,,0.00,weatherlink.com 1.10,2013-03-31 18:09:00,
2013-03-31 14:24:00,54.6,35.0,30.04,WSW,250,2.0,10.0,48,0.00,,,0.00,weatherlink.com 1.10,2013-03-31 18:24:00,
2013-03-31 14:39:00,54.6,35.0,30.03,SW,225,2.0,11.0,48,0.00,,,0.00,weatherlink.com 1.10,2013-03-31 18:39:00,
2013-03-31 14:54:00,53.7,35.0,30.03,SSW,212,2.0,9.0,49,0.00,,,0.00,weatherlink.com 1.10,2013-03-31 18:54:00,
2013-03-31 15:09:00,52.6,37.0,30.03,SW,219,4.0,11.0,55,0.00,,,0.00,weatherlink.com 1.10,2013-03-31 19:09:00,
2013-03-31 15:24:00,52.0,37.0,30.02,SW,221,3.0,8.0,56,0.00,,,0.00,weatherlink.com 1.10,2013-03-31 19:24:00,
2013-03-31 15:39:00,51.8,36.0,30.01,WSW,245,0.0,7.0,55,0.00,,,0.00,weatherlink.com 1.10,2013-03-31 19:39:00,
2013-03-31 15:54:00,51.7,36.0,30.01,WNW,295,4.0,7.0,56,0.00,,,0.00,weatherlink.com 1.10,2013-03-31 19:54:00,
2013-03-31 16:09:00,51.8,39.0,30.00,SSW,212,3.0,6.0,61,0.00,,,0.00,weatherlink.com 1.10,2013-03-31 20:09:00,
2013-03-31 16:24:00,51.8,38.0,30.00,SW,214,0.0,6.0,60,0.00,,,0.00,weatherlink.com 1.10,2013-03-31 20:24:00,
2013-03-31 16:39:00,51.9,37.0,29.99,SSW,213,5.0,8.0,57,0.00,,,0.00,weatherlink.com 1.10,2013-03-31 20:39:00,
2013-03-31 16:54:00,51.5,38.0,29.99,WNW,285,3.0,7.0,61,0.00,,,0.00,weatherlink.com 1.10,2013-03-31 20:54:00,
2013-03-31 17:09:00,50.7,39.0,29.99,SSW,207,2.0,8.0,64,0.00,,,0.00,weatherlink.com 1.10,2013-03-31 21:09:00,
2013-03-31 17:24:00,50.6,40.0,29.98,South,189,1.0,8.0,67,0.00,,,0.00,weatherlink.com 1.10,2013-03-31 21:24:00,
2013-03-31 17:39:00,49.8,40.0,29.98,SSW,194,3.0,5.0,69,0.00,,,0.00,weatherlink.com 1.10,2013-03-31 21:39:00,
2013-03-31 17:55:00,48.7,40.0,29.98,South,169,2.0,7.0,72,0.00,,,0.00,weatherlink.com 1.10,2013-03-31 21:55:00,
2013-03-31 18:10:00,48.4,40.0,29.98,SSW,205,1.0,6.0,74,0.00,,,0.00,weatherlink.com 1.10,2013-03-31 22:10:00,
2013-03-31 18:25:00,47.7,40.0,29.97,SE,131,2.0,7.0,76,0.00,,,0.00,weatherlink.com 1.10,2013-03-31 22:25:00,
2013-03-31 18:40:00,47.4,41.0,29.96,SSE,155,0.0,5.0,77,0.00,,,0.00,weatherlink.com 1.10,2013-03-31 22:40:00,
2013-03-31 18:55:00,47.2,40.0,29.96,SSW,193,2.0,6.0,76,0.00,,,0.00,weatherlink.com 1.10,2013-03-31 22:55:00,
2013-03-31 19:10:00,47.2,40.0,29.95,SSE,156,2.0,8.0,76,0.00,,,0.00,weatherlink.com 1.10,2013-03-31 23:10:00,
2013-03-31 19:25:00,46.8,40.0,29.95,SE,141,0.0,8.0,78,0.00,,,0.00,weatherlink.com 1.10,2013-03-31 23:25:00,
2013-03-31 19:40:00,46.6,39.0,29.94,SW,219,1.0,7.0,75,0.00,,,0.00,weatherlink.com 1.10,2013-03-31 23:40:00,
2013-03-31 19:55:00,47.0,38.0,29.93,SSE,149,4.0,9.0,70,0.00,,,0.00,weatherlink.com 1.10,2013-03-31 23:55:00,
2013-03-31 20:10:00,47.2,37.0,29.93,SW,216,0.0,9.0,68,0.00,,,0.00,weatherlink.com 1.10,2013-04-01 00:10:00,
2013-03-31 20:25:00,47.0,38.0,29.92,SE,132,0.0,10.0,70,0.00,,,0.00,weatherlink.com 1.10,2013-04-01 00:25:00,
2013-03-31 20:40:00,46.9,38.0,29.90,East,98,6.0,9.0,70,0.00,,,0.00,weatherlink.com 1.10,2013-04-01 00:40:00,
2013-03-31 20:55:00,47.0,38.0,29.89,ESE,104,5.0,12.0,70,0.00,,,0.00,weatherlink.com 1.10,2013-04-01 00:55:00,
2013-03-31 21:10:00,47.6,38.0,29.89,ESE,113,1.0,12.0,70,0.00,,,0.00,weatherlink.com 1.10,2013-04-01 01:10:00,
2013-03-31 21:25:00,47.6,39.0,29.88,SSW,207,1.0,13.0,71,0.00,,,0.00,weatherlink.com 1.10,2013-04-01 01:25:00,
2013-03-31 21:40:00,47.5,40.0,29.86,SE,132,5.0,12.0,75,0.00,,,0.00,weatherlink.com 1.10,2013-04-01 01:40:00,
2013-03-31 21:55:00,46.9,41.0,29.84,South,180,2.0,12.0,81,0.01,,,0.01,weatherlink.com 1.10,2013-04-01 01:55:00,
2013-03-31 22:10:00,46.3,42.0,29.83,SSE,162,5.0,12.0,84,0.02,,,0.02,weatherlink.com 1.10,2013-04-01 02:10:00,
2013-03-31 22:25:00,45.8,42.0,29.82,SE,136,4.0,13.0,87,0.04,,,0.04,weatherlink.com 1.10,2013-04-01 02:25:00,
2013-03-31 22:40:00,45.5,43.0,29.80,SE,128,3.0,12.0,89,0.05,,,0.05,weatherlink.com 1.10,2013-04-01 02:40:00,
2013-03-31 22:55:00,45.4,43.0,29.78,SSE,150,0.0,11.0,91,0.05,,,0.06,weatherlink.com 1.10,2013-04-01 02:55:00,
2013-03-31 23:10:00,45.5,43.0,29.75,East,101,6.0,14.0,92,0.07,,,0.09,weatherlink.com 1.10,2013-04-01 03:10:00,
2013-03-31 23:25:00,45.6,44.0,29.75,SE,136,5.0,15.0,93,0.06,,,0.10,weatherlink.com 1.10,2013-04-01 03:25:00,
2013-03-31 23:40:00,45.8,44.0,29.74,ESE,112,4.0,14.0,93,0.10,,,0.15,weatherlink.com 1.10,2013-04-01 03:40:00,
2013-03-31 23:55:00,46.0,44.0,29.72,ESE,110,9.0,14.0,94,0.13,,,0.19,weatherlink.com 1.10,2013-04-01 03:55:00,